Change the Weather History Date:

Sunday, November 4, 2012

  Actual Average Record
Temperature  
Mean Temperature 68 °F -  
Max Temperature 80 °F 68 °F 81 °F (2007)
Min Temperature 57 °F 49 °F 32 °F (2011)
Cooling Degree Days 3    
Growing Degree Days 18 (Base 50)    
Moisture  
Dew Point 55 °F    
Average Humidity 68    
Maximum Humidity 90    
Minimum Humidity 40    
Precipitation  
Precipitation 0.00 in - - ()
Sea Level Pressure  
Sea Level Pressure 30.09 in    
Wind  
Wind Speed 3 mph (NNE)    
Max Wind Speed 9 mph    
Max Gust Speed -    
Visibility 10 miles    
Events      
Averages and records for this station are not official NWS values.
T = Trace of Precipitation, MM = Missing Value Source: NWS Daily Summary

Daily Weather History Graph

Daily Weather History Graph

Search for Another Location

Airport or City:

Trip Planner

Search our weather history database for the weather conditions in past years. The results will help you decide how hot, cold, wet, or windy it might be!

Date:

Astronomy

Nov. 04, 2012 Rise Set
Actual Time 6:50 AM CST 5:42 PM CST
Civil Twilight 6:25 AM CST 6:07 PM CST
Nautical Twilight 5:56 AM CST 6:35 PM CST
Astronomical Twilight 5:28 AM CST 7:04 PM CST
Moon 10:24 PM CST (11/4) 11:31 AM CST (11/4)
Length of Visible Light 11h 41m
Length of Day
10h 51m
Waning Gibbous, 72% of the Moon is Illuminated
Nov 4
Waning Gibbous
Nov 6
Last Quarter
Nov 13
New
Nov 20
First Quarter
Nov 28
Full

Hourly Weather History & Observations

Time (CST) Temp. Dew Point Humidity Pressure Visibility Wind Dir Wind Speed Gust Speed Precip Events Conditions
12:53 AM 63.0 °F 57.0 °F 81% 30.07 in 10.0 mi WSW 3.5 mph - N/A   Clear
1:53 AM 63.0 °F 57.9 °F 84% 30.08 in 10.0 mi North - - N/A   Clear
1:53 AM 62.1 °F 57.0 °F 84% 30.07 in 10.0 mi Calm Calm - N/A   Clear
2:53 AM 61.0 °F 57.0 °F 87% 30.05 in 10.0 mi Calm Calm - N/A   Clear
3:53 AM 60.1 °F 55.9 °F 86% 30.05 in 10.0 mi North 3.5 mph - N/A   Clear
4:53 AM 59.0 °F 55.0 °F 87% 30.06 in 10.0 mi Calm Calm - N/A   Clear
5:53 AM 57.9 °F 55.0 °F 90% 30.09 in 10.0 mi Calm Calm - N/A   Clear
6:53 AM 57.9 °F 55.0 °F 90% 30.10 in 10.0 mi NW 3.5 mph - N/A   Clear
7:53 AM 61.0 °F 54.0 °F 78% 30.12 in 10.0 mi NNW 4.6 mph - N/A   Clear
8:53 AM 64.9 °F 57.0 °F 75% 30.13 in 10.0 mi North 5.8 mph - N/A   Clear
9:53 AM 69.1 °F 57.9 °F 68% 30.14 in 10.0 mi Variable 6.9 mph - N/A   Clear
10:40 AM 69.1 °F 57.9 °F 68% 30.18 in 10.0 mi NNE 8.1 mph - N/A   Scattered Clouds
10:53 AM 69.1 °F 57.9 °F 68% 30.14 in 10.0 mi NNE 9.2 mph - N/A   Partly Cloudy
11:53 AM 73.0 °F 57.0 °F 57% 30.12 in 10.0 mi NE 3.5 mph - N/A   Clear
12:53 PM 77.0 °F 55.9 °F 48% 30.09 in 10.0 mi NNE 9.2 mph - N/A   Clear
1:53 PM 78.1 °F 54.0 °F 43% 30.06 in 10.0 mi Variable 4.6 mph - N/A   Clear
2:53 PM 79.0 °F 54.0 °F 42% 30.05 in 10.0 mi North 8.1 mph - N/A   Clear
3:53 PM 79.0 °F 53.1 °F 40% 30.05 in 10.0 mi North 6.9 mph - N/A   Clear
4:53 PM 77.0 °F 53.1 °F 43% 30.05 in 10.0 mi ENE 5.8 mph - N/A   Clear
5:53 PM 73.0 °F 52.0 °F 48% 30.06 in 10.0 mi NE 4.6 mph - N/A   Clear
6:53 PM 69.1 °F 51.1 °F 53% 30.07 in 10.0 mi NE 3.5 mph - N/A   Clear
7:53 PM 64.9 °F 51.1 °F 61% 30.09 in 10.0 mi Calm Calm - N/A   Clear
8:53 PM 62.1 °F 51.1 °F 67% 30.09 in 10.0 mi Calm Calm - N/A   Clear
9:53 PM 60.1 °F 51.1 °F 72% 30.09 in 10.0 mi Calm Calm - N/A   Clear
10:53 PM 57.9 °F 50.0 °F 75% 30.09 in 10.0 mi Calm Calm - N/A   Clear